This is the latest recevied weather packets stored in our database for station/object W0BJ. If no packets are shown the sender has not sent any weather packets the latest 10 day(s).
| Time | Temp. | Humidity | Pressure | Rain* | Wind** | Luminosity | Snow |
|---|---|---|---|---|---|---|---|
| 1778097336 | 18.89° C | 39% | 1019.2 hPa | 0 mm | - | - | - |
| 1778097202 | 18.89° C | 38% | 1019 hPa | 0 mm | - | - | - |
| 1778096736 | 18.33° C | 39% | 1019.3 hPa | 0 mm | - | - | - |
| 1778096301 | 18.33° C | 39% | 1019.3 hPa | 0 mm | - | - | - |
| 1778096135 | 18.33° C | 40% | 1019.1 hPa | 0 mm | - | - | - |
| 1778095537 | 18.33° C | 39% | 1019.5 hPa | 0 mm | - | - | - |
| 1778095401 | 18.33° C | 38% | 1019.5 hPa | 0 mm | - | - | - |
| 1778094937 | 18.33° C | 41% | 1019.4 hPa | 0 mm | - | - | - |
| 1778094501 | 18.33° C | 39% | 1019.4 hPa | 0 mm | - | - | - |
| 1778094336 | 17.78° C | 40% | 1019.2 hPa | 0 mm | - | - | - |
| 1778093736 | 17.78° C | 39% | 1019.1 hPa | 0 mm | - | - | - |
| 1778093602 | 17.78° C | 40% | 1019.2 hPa | 0 mm | - | - | - |
| 1778093135 | 17.78° C | 38% | 1018.9 hPa | 0 mm | - | - | - |
| 1778092701 | 17.78° C | 39% | 1019 hPa | 0 mm | - | - | - |
| 1778092535 | 17.78° C | 40% | 1019.1 hPa | 0 mm | - | - | - |
| 1778091935 | 17.22° C | 43% | 1019.3 hPa | 0 mm | - | - | - |
| 1778091801 | 17.22° C | 42% | 1019.3 hPa | 0 mm | - | - | - |
| 1778091334 | 17.78° C | 39% | 1019.6 hPa | 0 mm | - | - | - |
| 1778090902 | 17.22° C | 44% | 1019.5 hPa | 0 mm | - | - | - |
| 1778090736 | 17.22° C | 44% | 1019.4 hPa | 0 mm | - | - | - |
| 1778090135 | 16.67° C | 46% | 1019.4 hPa | 0 mm | - | - | - |
| 1778090001 | 16.67° C | 46% | 1019.4 hPa | 0 mm | - | - | - |
| 1778089535 | 16.11° C | 44% | 1019.3 hPa | 0 mm | - | - | - |
| 1778089101 | 16.11° C | 48% | 1019.4 hPa | 0 mm | - | - | - |
| 1778088935 | 16.67° C | 49% | 1019.4 hPa | 0 mm | - | - | - |
* Rain latest hour (hover to see other rain measurements)
** Current wind speed in m/s (hover to see current wind gust speed)